This is the latest recevied weather packets stored in our database for station/object W4MLN-1. If no packets are shown the sender has not sent any weather packets the latest 10 day(s).
| Time | Temp. | Humidity | Pressure | Rain* | Wind** | Luminosity | Snow |
|---|---|---|---|---|---|---|---|
| 1777980474 | 3.33° C | 99% | 1015.6 hPa | 0 mm | - | 35 W/m² | - |
| 1777980173 | 3.33° C | 99% | 1015.4 hPa | 0 mm | - | 34 W/m² | - |
| 1777979872 | 3.33° C | 99% | 1015.4 hPa | 0 mm | - | 32 W/m² | - |
| 1777979559 | 3.33° C | 99% | 1015.7 hPa | 0 mm | - | 29 W/m² | - |
| 1777979260 | 3.33° C | 99% | 1015.7 hPa | 0 mm | - | 27 W/m² | - |
| 1777978960 | 2.78° C | 99% | 1015.6 hPa | 0 mm | - | 23 W/m² | - |
| 1777978644 | 2.78° C | 99% | 1015.6 hPa | 0 mm | - | 19 W/m² | - |
| 1777978345 | 2.78° C | 100% | 1015.6 hPa | 0 mm | - | 14 W/m² | - |
| 1777978045 | 3.33° C | 100% | 1015.6 hPa | 0 mm | - | 11 W/m² | - |
| 1777977744 | 3.33° C | 100% | 1015.4 hPa | 0 mm | - | 8 W/m² | - |
| 1777977445 | 3.33° C | 100% | 1015.4 hPa | 0 mm | - | 5 W/m² | - |
| 1777977146 | 3.33° C | 100% | 1015.4 hPa | 0 mm | - | 4 W/m² | - |
| 1777976845 | 3.33° C | 100% | 1015.3 hPa | 0 mm | - | 2 W/m² | - |
| 1777976545 | 3.33° C | 99% | 1015.3 hPa | 0 mm | - | 0 W/m² | - |
| 1777976245 | 3.33° C | 99% | 1015.3 hPa | 0 mm | - | 0 W/m² | - |
| 1777975945 | 3.33° C | 99% | 1015.4 hPa | 0 mm | - | 0 W/m² | - |
| 1777975633 | 3.89° C | 99% | 1015.3 hPa | 0 mm | - | 0 W/m² | - |
| 1777975331 | 3.89° C | 99% | 1015.2 hPa | 0 mm | - | 0 W/m² | - |
| 1777975030 | 3.89° C | 99% | 1015.2 hPa | 0 mm | - | 0 W/m² | - |
| 1777974730 | 3.89° C | 99% | 1015.2 hPa | 0 mm | - | 0 W/m² | - |
| 1777974416 | 3.89° C | 99% | 1015.2 hPa | 0 mm | - | 0 W/m² | - |
| 1777974115 | 3.89° C | 99% | 1015.2 hPa | 0 mm | - | 0 W/m² | - |
| 1777973816 | 4.44° C | 99% | 1015.1 hPa | 0 mm | - | 0 W/m² | - |
| 1777973517 | 3.89° C | 99% | 1015.1 hPa | 0 mm | - | 0 W/m² | - |
| 1777973216 | 3.89° C | 99% | 1015.1 hPa | 0 mm | - | 0 W/m² | - |
* Rain latest hour (hover to see other rain measurements)
** Current wind speed in m/s (hover to see current wind gust speed)